Tracking 30995 objects as of 7-Jul-2025
HD Live streaming from Space Station
objects crossing your sky now

COSMOS 1823 DEB

Track COSMOS 1823 DEB now!
10-day predictions


NORAD ID: 18757
Int'l Code: 1987-020AJ
Perigee: 1,056.7 km
Apogee: 1,195.9 km
Inclination: 73.7 °
Period: 107.7 minutes
Semi major axis: 7497 km
RCS: 0.0664 m2 (small)
Launch date: February 20, 1987
Source: Commonwealth of Independent States (former USSR) (CIS)
Launch site: PLESETSK MISSILE AND SPACE COMPLEX (PKMTR)

Note: This is SATELLITE DEBRIS
Your satellite tracking list
SL-8 R/B
Track 1 satellite(s)




NASA's NSSDC Master Catalog

Two Line Element Set (TLE):
1 18757U 87020AJ  25187.16343836  .00007192  00000-0  13463-1 0  9999
2 18757  73.7076  77.5012 0092857 111.6904  42.0134 13.37352005753722
Source of the keplerian elements: AFSPC